Time,TemperatureF,DewpointF,PressureIn,WindDirection,WindDirectionDegrees,WindSpeedMPH,WindSpeedGustMPH,Humidity,HourlyPrecipIn,Conditions,Clouds,dailyrainin,SoftwareType,DateUTC
2013-11-06 00:06:00,38.5,36.9,30.28,NE,45,0.0,-999.0,94,-99.99,,,0.00,Acu-Link.com,2013-11-06 05:06:00,
2013-11-06 00:22:00,39.0,37.7,30.28,South,180,0.0,-999.0,95,-99.99,,,0.00,Acu-Link.com,2013-11-06 05:22:00,
2013-11-06 00:37:00,38.8,37.5,30.28,WNW,292,2.2,-999.0,95,-99.99,,,0.00,Acu-Link.com,2013-11-06 05:37:00,
2013-11-06 00:52:00,38.5,37.2,30.27,West,270,2.2,-999.0,95,-99.99,,,0.00,Acu-Link.com,2013-11-06 05:52:00,
2013-11-06 01:07:00,38.8,37.5,30.26,ESE,112,1.7,-999.0,95,-99.99,,,0.00,Acu-Link.com,2013-11-06 06:07:00,
2013-11-06 01:22:00,39.0,37.7,30.26,SSE,157,0.0,-999.0,95,-99.99,,,0.00,Acu-Link.com,2013-11-06 06:22:00,
2013-11-06 01:37:00,38.7,37.4,30.25,NNE,22,0.0,-999.0,95,-99.99,,,0.00,Acu-Link.com,2013-11-06 06:37:00,
2013-11-06 01:53:00,38.8,37.5,30.25,North,0,0.0,-999.0,95,-99.99,,,0.00,Acu-Link.com,2013-11-06 06:53:00,
2013-11-06 02:08:00,38.7,37.4,30.24,NE,45,0.0,-999.0,95,-99.99,,,0.00,Acu-Link.com,2013-11-06 07:08:00,
2013-11-06 02:23:00,38.7,37.7,30.24,South,180,0.0,-999.0,96,-99.99,,,0.00,Acu-Link.com,2013-11-06 07:23:00,
2013-11-06 02:38:00,38.5,37.5,30.23,WNW,292,0.0,-999.0,96,-99.99,,,0.00,Acu-Link.com,2013-11-06 07:38:00,
2013-11-06 02:54:00,38.1,37.1,30.23,North,0,0.0,-999.0,96,-99.99,,,0.00,Acu-Link.com,2013-11-06 07:54:00,
2013-11-06 03:09:00,38.1,37.1,30.23,NNE,22,0.0,-999.0,96,-99.99,,,0.00,Acu-Link.com,2013-11-06 08:09:00,
2013-11-06 03:24:00,38.8,37.8,30.23,SSE,157,0.0,-999.0,96,-99.99,,,0.00,Acu-Link.com,2013-11-06 08:24:00,
2013-11-06 03:40:00,39.0,38.0,30.24,NE,45,0.0,-999.0,96,-99.99,,,0.00,Acu-Link.com,2013-11-06 08:40:00,
2013-11-06 03:55:00,39.4,38.4,30.23,WNW,292,0.0,-999.0,96,-99.99,,,0.00,Acu-Link.com,2013-11-06 08:55:00,
2013-11-06 04:10:00,39.9,38.9,30.23,SE,135,1.1,-999.0,96,-99.99,,,0.00,Acu-Link.com,2013-11-06 09:10:00,
2013-11-06 04:25:00,39.9,38.9,30.22,West,270,0.0,-999.0,96,-99.99,,,0.00,Acu-Link.com,2013-11-06 09:25:00,
2013-11-06 04:41:00,40.6,39.6,30.22,SE,135,0.0,-999.0,96,-99.99,,,0.00,Acu-Link.com,2013-11-06 09:41:00,
2013-11-06 04:56:00,41.2,39.9,30.22,North,0,0.0,-999.0,95,-99.99,,,0.00,Acu-Link.com,2013-11-06 09:56:00,
2013-11-06 05:11:00,41.2,39.9,30.22,SSE,157,1.7,-999.0,95,-99.99,,,0.00,Acu-Link.com,2013-11-06 10:11:00,
2013-11-06 05:26:00,41.2,39.9,30.22,NNW,337,0.0,-999.0,95,-99.99,,,0.00,Acu-Link.com,2013-11-06 10:26:00,
2013-11-06 05:41:00,41.2,39.9,30.22,NNE,22,0.0,-999.0,95,-99.99,,,0.00,Acu-Link.com,2013-11-06 10:41:00,
2013-11-06 05:56:00,41.2,39.9,30.22,West,270,0.0,-999.0,95,-99.99,,,0.00,Acu-Link.com,2013-11-06 10:56:00,
2013-11-06 06:11:00,41.2,39.9,30.21,ESE,112,0.0,-999.0,95,-99.99,,,0.00,Acu-Link.com,2013-11-06 11:11:00,
2013-11-06 06:27:00,41.2,39.9,30.21,West,270,0.0,-999.0,95,-99.99,,,0.00,Acu-Link.com,2013-11-06 11:27:00,
2013-11-06 06:42:00,41.7,40.4,30.22,SSE,157,0.0,-999.0,95,-99.99,,,0.00,Acu-Link.com,2013-11-06 11:42:00,
2013-11-06 06:57:00,42.4,41.1,30.21,South,180,0.0,-999.0,95,-99.99,,,0.00,Acu-Link.com,2013-11-06 11:57:00,
2013-11-06 07:12:00,42.3,41.0,30.20,ESE,112,2.7,-999.0,95,-99.99,,,0.00,Acu-Link.com,2013-11-06 12:12:00,
2013-11-06 07:27:00,42.4,41.1,30.19,West,270,2.2,-999.0,95,-99.99,,,0.00,Acu-Link.com,2013-11-06 12:27:00,
2013-11-06 07:42:00,43.2,41.6,30.20,SSE,157,1.7,-999.0,94,-99.99,,,0.00,Acu-Link.com,2013-11-06 12:42:00,
2013-11-06 07:57:00,43.5,41.6,30.20,NNW,337,0.0,-999.0,93,-99.99,,,0.00,Acu-Link.com,2013-11-06 12:57:00,
2013-11-06 08:12:00,44.1,42.2,30.21,West,270,1.7,-999.0,93,-99.99,,,0.00,Acu-Link.com,2013-11-06 13:12:00,
2013-11-06 08:27:00,44.4,41.9,30.20,SSE,157,1.7,-999.0,91,-99.99,,,0.00,Acu-Link.com,2013-11-06 13:27:00,
2013-11-06 08:43:00,45.3,42.5,30.19,SW,225,1.7,-999.0,90,-99.99,,,0.00,Acu-Link.com,2013-11-06 13:43:00,
2013-11-06 08:58:00,46.8,43.4,30.19,ESE,112,2.2,-999.0,88,-99.99,,,0.00,Acu-Link.com,2013-11-06 13:58:00,
2013-11-06 09:13:00,47.5,43.8,30.18,East,90,1.7,-999.0,87,-99.99,,,0.00,Acu-Link.com,2013-11-06 14:13:00,
2013-11-06 09:28:00,48.7,44.7,30.17,SSE,157,0.0,-999.0,86,-99.99,,,0.00,Acu-Link.com,2013-11-06 14:28:00,
2013-11-06 09:43:00,49.3,44.7,30.16,SSE,157,2.7,-999.0,84,-99.99,,,0.00,Acu-Link.com,2013-11-06 14:43:00,
2013-11-06 09:58:00,49.6,45.0,30.15,ESE,112,0.0,-999.0,84,-99.99,,,0.00,Acu-Link.com,2013-11-06 14:58:00,
2013-11-06 10:13:00,51.4,46.1,30.15,WNW,292,0.0,-999.0,82,-99.99,,,0.00,Acu-Link.com,2013-11-06 15:13:00,
2013-11-06 10:29:00,53.1,47.8,30.15,West,270,3.7,-999.0,82,-99.99,,,0.00,Acu-Link.com,2013-11-06 15:29:00,
2013-11-06 10:44:00,54.7,49.0,30.15,WSW,247,0.0,-999.0,81,-99.99,,,0.00,Acu-Link.com,2013-11-06 15:44:00,
2013-11-06 10:59:00,55.8,49.4,30.14,South,180,1.7,-999.0,79,-99.99,,,0.00,Acu-Link.com,2013-11-06 15:59:00,
2013-11-06 11:14:00,56.8,49.7,30.13,WSW,247,2.7,-999.0,77,-99.99,,,0.00,Acu-Link.com,2013-11-06 16:14:00,
2013-11-06 11:29:00,57.7,50.2,30.11,West,270,2.7,-999.0,76,-99.99,,,0.00,Acu-Link.com,2013-11-06 16:29:00,
2013-11-06 11:45:00,58.3,50.4,30.08,SSW,202,1.1,-999.0,75,-99.99,,,0.00,Acu-Link.com,2013-11-06 16:45:00,
2013-11-06 12:00:00,58.6,50.3,30.07,South,180,2.2,-999.0,74,-99.99,,,0.00,Acu-Link.com,2013-11-06 17:00:00,
2013-11-06 12:15:00,58.1,49.5,30.07,West,270,2.7,-999.0,73,-99.99,,,0.00,Acu-Link.com,2013-11-06 17:15:00,
2013-11-06 12:30:00,59.7,50.3,30.05,West,270,2.2,-999.0,71,-99.99,,,0.00,Acu-Link.com,2013-11-06 17:30:00,
2013-11-06 12:46:00,60.4,50.6,30.05,SSW,202,4.2,-999.0,70,-99.99,,,0.00,Acu-Link.com,2013-11-06 17:46:00,
2013-11-06 13:01:00,60.1,50.3,30.05,SSE,157,6.8,-999.0,70,-99.99,,,0.00,Acu-Link.com,2013-11-06 18:01:00,
2013-11-06 13:16:00,61.9,50.8,30.03,SSW,202,6.3,-999.0,67,-99.99,,,0.00,Acu-Link.com,2013-11-06 18:16:00,
2013-11-06 13:31:00,62.4,50.9,30.01,SSW,202,5.8,-999.0,66,-99.99,,,0.00,Acu-Link.com,2013-11-06 18:31:00,
2013-11-06 13:46:00,63.5,51.1,30.01,WNW,292,8.9,-999.0,64,-99.99,,,0.00,Acu-Link.com,2013-11-06 18:46:00,
2013-11-06 14:01:00,63.7,50.9,30.00,South,180,5.8,-999.0,63,-99.99,,,0.00,Acu-Link.com,2013-11-06 19:01:00,
2013-11-06 14:16:00,63.5,50.7,29.98,South,180,3.2,-999.0,63,-99.99,,,0.00,Acu-Link.com,2013-11-06 19:16:00,
2013-11-06 14:31:00,64.2,50.9,29.98,SE,135,4.2,-999.0,62,-99.99,,,0.00,Acu-Link.com,2013-11-06 19:31:00,
2013-11-06 14:46:00,63.7,50.4,29.97,ESE,112,4.7,-999.0,62,-99.99,,,0.00,Acu-Link.com,2013-11-06 19:46:00,
2013-11-06 15:02:00,64.0,50.7,29.96,SE,135,3.2,-999.0,62,-99.99,,,0.00,Acu-Link.com,2013-11-06 20:02:00,
2013-11-06 15:17:00,63.7,50.4,29.96,SE,135,5.3,-999.0,62,-99.99,,,0.00,Acu-Link.com,2013-11-06 20:17:00,
2013-11-06 15:32:00,63.9,50.6,29.95,SE,135,3.2,-999.0,62,-99.99,,,0.00,Acu-Link.com,2013-11-06 20:32:00,
2013-11-06 15:47:00,63.9,51.1,29.95,SSE,157,3.2,-999.0,63,-99.99,,,0.00,Acu-Link.com,2013-11-06 20:47:00,
2013-11-06 16:02:00,63.3,50.5,29.95,West,270,4.2,-999.0,63,-99.99,,,0.00,Acu-Link.com,2013-11-06 21:02:00,
2013-11-06 16:17:00,63.0,50.6,29.94,SE,135,6.3,-999.0,64,-99.99,,,0.00,Acu-Link.com,2013-11-06 21:17:00,
2013-11-06 16:33:00,62.2,49.9,29.93,SE,135,7.8,-999.0,64,-99.99,,,0.00,Acu-Link.com,2013-11-06 21:33:00,
2013-11-06 16:48:00,61.7,49.8,29.92,SSW,202,3.7,-999.0,65,-99.99,,,0.00,Acu-Link.com,2013-11-06 21:48:00,
2013-11-06 17:03:00,61.3,49.8,29.91,ESE,112,4.2,-999.0,66,-99.99,,,0.00,Acu-Link.com,2013-11-06 22:03:00,
2013-11-06 17:18:00,60.8,49.8,29.91,North,0,2.2,-999.0,67,-99.99,,,0.00,Acu-Link.com,2013-11-06 22:18:00,
2013-11-06 17:33:00,61.0,50.0,29.90,SSW,202,2.7,-999.0,67,-99.99,,,0.00,Acu-Link.com,2013-11-06 22:33:00,
2013-11-06 17:48:00,60.6,50.0,29.90,SE,135,2.7,-999.0,68,-99.99,,,0.00,Acu-Link.com,2013-11-06 22:48:00,
2013-11-06 18:03:00,60.8,50.6,29.89,SSE,157,4.2,-999.0,69,-99.99,,,0.00,Acu-Link.com,2013-11-06 23:03:00,
2013-11-06 18:18:00,60.4,50.2,29.89,WNW,292,3.2,-999.0,69,-99.99,,,0.00,Acu-Link.com,2013-11-06 23:18:00,
2013-11-06 18:33:00,59.5,50.1,29.89,ESE,112,2.7,-999.0,71,-99.99,,,0.00,Acu-Link.com,2013-11-06 23:33:00,
2013-11-06 18:49:00,59.0,50.0,29.89,NE,45,1.7,-999.0,72,-99.99,,,0.00,Acu-Link.com,2013-11-06 23:49:00,
2013-11-06 19:04:00,58.1,49.9,29.89,North,0,2.7,-999.0,74,-99.99,,,0.00,Acu-Link.com,2013-11-07 00:04:00,
2013-11-06 19:19:00,57.9,50.0,29.89,NW,315,1.7,-999.0,75,-99.99,,,0.00,Acu-Link.com,2013-11-07 00:19:00,
2013-11-06 19:34:00,57.9,50.0,29.88,NW,315,2.7,-999.0,75,-99.99,,,0.00,Acu-Link.com,2013-11-07 00:34:00,
2013-11-06 19:49:00,58.1,50.2,29.88,West,270,1.7,-999.0,75,-99.99,,,0.00,Acu-Link.com,2013-11-07 00:49:00,
2013-11-06 20:04:00,58.6,50.3,29.87,West,270,1.1,-999.0,74,-99.99,,,0.00,Acu-Link.com,2013-11-07 01:04:00,
2013-11-06 20:19:00,58.6,50.3,29.86,NW,315,4.2,-999.0,74,-99.99,,,0.00,Acu-Link.com,2013-11-07 01:19:00,
2013-11-06 20:34:00,59.5,50.8,29.85,SSW,202,3.2,-999.0,73,-99.99,,,0.00,Acu-Link.com,2013-11-07 01:34:00,
2013-11-06 20:49:00,60.3,50.9,29.84,West,270,4.7,-999.0,71,-99.99,,,0.00,Acu-Link.com,2013-11-07 01:49:00,
2013-11-06 21:04:00,59.9,50.8,29.83,WNW,292,3.2,-999.0,72,-99.99,,,0.00,Acu-Link.com,2013-11-07 02:04:00,
2013-11-06 21:20:00,60.3,50.9,29.82,NW,315,3.7,-999.0,71,-99.99,,,0.00,Acu-Link.com,2013-11-07 02:20:00,
2013-11-06 21:35:00,60.3,51.2,29.81,North,0,2.2,-999.0,72,-99.99,,,0.00,Acu-Link.com,2013-11-07 02:35:00,
2013-11-06 21:50:00,60.6,51.1,29.80,South,180,2.7,-999.0,71,-99.99,,,0.00,Acu-Link.com,2013-11-07 02:50:00,
2013-11-06 22:05:00,60.6,51.1,29.79,NE,45,2.7,-999.0,71,-99.99,,,0.00,Acu-Link.com,2013-11-07 03:05:00,
2013-11-06 22:20:00,61.0,51.1,29.78,West,270,2.2,-999.0,70,-99.99,,,0.00,Acu-Link.com,2013-11-07 03:20:00,
2013-11-06 22:35:00,61.0,51.1,29.77,WSW,247,2.2,-999.0,70,-99.99,,,0.00,Acu-Link.com,2013-11-07 03:35:00,
2013-11-06 22:50:00,61.3,51.0,29.76,West,270,3.7,-999.0,69,-99.99,,,0.00,Acu-Link.com,2013-11-07 03:50:00,
2013-11-06 23:05:00,61.3,51.0,29.77,West,270,1.7,-999.0,69,-99.99,,,0.00,Acu-Link.com,2013-11-07 04:05:00,
2013-11-06 23:20:00,61.5,51.2,29.76,West,270,6.8,-999.0,69,-99.99,,,0.00,Acu-Link.com,2013-11-07 04:20:00,
2013-11-06 23:36:00,61.7,51.0,29.76,WNW,292,2.2,-999.0,68,-99.99,,,0.00,Acu-Link.com,2013-11-07 04:36:00,
2013-11-06 23:51:00,61.5,50.8,29.76,West,270,6.3,-999.0,68,-99.99,,,0.00,Acu-Link.com,2013-11-07 04:51:00,